Location: Unspecified
(0.0000°N, 0.0000°E)
Time: 03:07:16
(UTC+01:00)

ARIANE DEB (SPELDA) - Visible Passes

Search period start: 23 November 2014 00:00
Search period end: 03 December 2014 00:00
Orbit: 337 x 33257 km, 3.3° (Epoch: 22 November)

Date Brightness Start Highest point End Pass type
(mag) Time Alt. Az. Time Alt. Az. Time Alt. Az.
23 Nov 7.1 06:12:25 10° W 10:22:34 89° N 15:21:19 10° E visible
24 Nov 6.7 01:41:03 29° E 01:41:03 29° E 10:08:06 10° E visible
24 Nov 3.1 20:40:19 10° W 20:48:27 64° W 20:48:27 64° W visible
26 Nov 6.1 02:27:03 54° ESE 02:27:03 54° ESE 11:10:17 10° E visible
26 Nov 5.5 21:33:15 10° W 21:34:23 15° W 21:34:23 15° W visible
28 Nov 5.7 03:12:55 80° S 03:13:07 80° S 12:05:49 10° E visible
30 Nov 5.9 03:58:40 54° WSW 04:04:45 83° S 12:58:08 10° E visible
02 Dec 6.4 04:44:16 30° W 04:59:10 85° S 13:48:32 10° E visible
